• MPC Preparation (Info)

  • MPEC 2024-J244 : 2024 JV8

    The following Minor Planet Electronic Circular may be linked-to from your own Web pages, but must not otherwise be redistributed electronically.

    A form allowing access to any MPEC is at the bottom of this page.


    Read MPEC 2024-J243 Read MPEC 2024-J245


    M.P.E.C. 2024-J244                                 Issued 2024 May 10, 10:56 UT
    
         The Minor Planet Electronic Circulars contain information on unusual
             minor planets, routine data on comets and natural satellites,
             and occasional editorial announcements.  They are published
        on behalf of Division F of the International Astronomical Union by the
              Minor Planet Center, Smithsonian Astrophysical Observatory,
                              Cambridge, MA 02138, U.S.A.
    			  
                 Prepared using the Tamkin Foundation Computer Network
    
                                  MPC@CFA.HARVARD.EDU
                URL https://www.minorplanetcenter.net/    ISSN 1523-6714
    
                                    2024 JV8                                 
    
    
    Observations:
         K24J08V 1C2024 05 08.46068 21 10 15.09 -12 50 54.9                VEJ244G96
         K24J08V 1C2024 05 08.47618 21 10 14.28 -12 50 34.1                VEJ244G96
         K24J08V*1C2024 05 09.45438921 12 20.804-12 22 33.85         20.02GVEJ244G96
         K24J08V 1C2024 05 09.45962221 12 20.596-12 22 27.30         19.92GVEJ244G96
         K24J08V 1C2024 05 09.46486921 12 20.340-12 22 20.35         19.54GVEJ244G96
         K24J08V 1C2024 05 09.47414521 12 19.880-12 22 07.40               VEJ244G96
         K24J08V 1C2024 05 09.47750221 12 19.730-12 22 04.00               VEJ244G96
         K24J08V mC2024 05 10.42681421 14 25.901-11 54 33.01         20.11GVEJ244I52
         K24J08V mC2024 05 10.43086521 14 25.868-11 54 27.68         20.22GVEJ244I52
         K24J08V mC2024 05 10.43491721 14 25.760-11 54 22.57         19.84GVEJ244I52
         K24J08V mC2024 05 10.43809521 14 25.663-11 54 18.72         19.79GVEJ244I52
    
    Observer details:
    G96 Mt. Lemmon Survey.  Observer J. K. Hogan.  Measurers B. Gray, D. Rankin,
        F. C. Shelly, T. Beuden, V. F. Carvajal, D. Fay, J. B. Fazekas, D. C.
        Fuls, A. R. Gibbs, A. D. Grauer, H. Groeller, J. K. Hogan, R. A. Kowalski,
        S. M. Larson, G. J. Leonard, R. L. Seaman, K. W. Wierzchos.  1.5-m
        reflector + 10K CCD.
    I52 Steward Observatory, Mt. Lemmon Station.  Observer H. Groeller.  Measurers
        T. Beuden, V. F. Carvajal, D. Fay, J. B. Fazekas, D. C. Fuls, A. R. Gibbs,
        A. D. Grauer, H. Groeller, J. K. Hogan, R. A. Kowalski, S. M. Larson, G.
        J. Leonard, D. Rankin, R. L. Seaman, F. C. Shelly, K. W. Wierzchos.  1.0-m
        prime focus + CCD.
    
    Orbital elements:
    2024 JV8                                                 Earth MOID = 0.0001 AU
    Epoch 2024 Mar. 31.0 TT = JDT 2460400.5                 MPC                     
    M  48.79116              (2000.0)            P               Q                  
    n   0.96789156     Peri.  281.16060     -0.76902935     -0.63920795             
    a   1.0121656      Node   219.10670     +0.58809823     -0.70589871             
    e   0.0240752      Incl.    0.24131     +0.25046822     -0.30515604             
    P   1.02           H   26.21          G   0.15           U   8                  
    Residuals in seconds of arc
    240508 G96  0.6+  0.0     240509 G96  0.1-  0.0     240510 I52  0.3+  0.2+
    240508 G96  0.6-  0.0     240509 G96  0.0   0.2+    240510 I52  0.1+  0.1+
    240509 G96  0.0   0.5+    240509 G96  0.5+  1.1-    240510 I52  0.1-  0.2-
    240509 G96  0.1+  0.1+    240510 I52  0.4-  0.0
    
    Ephemeris:
    2024 JV8                 a,e,i = 1.01, 0.02, 0                   q = 0.9878
    Date    TT    R. A. (2000) Decl.     Delta      r    Elong.  Phase     V
    2024 04 10    20 07 01.7 -25 23 53   0.01470 0.9999    81.8    97.4    20.5
    ...
    2024 04 25    20 40 15.2 -18 52 38   0.01570 1.0054    87.4    91.7    20.4
    ...
    2024 05 03    20 58 05.1 -15 17 38   0.01569 1.0082    90.1    89.0    20.3
    ...
    2024 05 09    21 11 03.5 -12 29 13   0.01539 1.0102    92.1    87.0    20.2
    2024 05 10    21 13 08.5 -12 00 40   0.01532 1.0105    92.5    86.7    20.2
    2024 05 11    21 15 12.4 -11 31 58   0.01524 1.0108    92.8    86.3    20.2
    ...
    2024 05 17    21 27 28.9 -08 35 03   0.01468 1.0126    94.8    84.4    20.0
    ...
    2024 05 25    21 44 56.6 -04 14 43   0.01366 1.0145    96.8    82.4    19.8
    ...
    2024 06 09    22 25 39.2 +06 42 38   0.01064 1.0166    97.3    82.1    19.3
    
    A. U. Tomatic                (C) Copyright 2024 MPC           M.P.E.C. 2024-J244
    


    Read MPEC 2024-J243 Read MPEC 2024-J245


    MPEC number:

    Enter an MPEC number in one of the following forms:

    • 1997-B01 (the full form)
    • J97B01 (the packed version of the full form)
    • B01 (the abbreviated form)